VENTA 1 (42791 NORAD) Tracking and Keplerian Element Data

This shows tracking and keplerian element data for the satellite.

Feedback or suggestion? Click here.




ElementValue
Catalog42791
NameVENTA 1
Epoch Orbit7647
Epoch Day312.6163274
Epoch Year2018
RAAN10.1075
Inclination97.3841
Eccentricity0.0009753
Argument of Perigee293.7157
Mean Anonmoly66.3056
Mean Motion15.22284594
Decay Rate1.226E-05
L11 42791U 17036AC 18312.61632740 .00001226 00000-0 56230-4 0 9995
L22 42791 097.3841 010.1075 0009753 293.7157 066.3056 15.22284594076471

Live tracking and technical data element details for VENTA 1 (NORAD 42791). VENTA 1 can be tracked NOW for your location showing map with azimuth and elevation plus other details from your city location.

Track the satellite on the map from your city or location and see movement details for azimuth, elevation, latitude, longitude, range, height, and movement on the map or in text.







IsCatalogInMostPopularTable: catalog: 42791, numindb: 131
Update: records affected: 1



GetName: 42791 VENTA 1

Hit Count: updated at: Mon, 12 Nov 2018 17:34:37 GMT